Pare-brise à Drummondville Pare-brise à Drummondville

CLASSEMENT SAISON RÉGULIÈRE
Été-2019 M2
Pos Équipe PJ G P N DP BP BC +/- Lan Pts Sequ. Match
1 Drummond United 14 10 1 3 0 62 23 39 0 75 (42) 2-1-2-0 feuille
2 Tim Copains 14 11 2 1 0 52 21 31 0 73 (39) 4-1-0-0 feuille
3 Deloitte 14 10 3 1 0 60 24 36 0 71 (40) 4-0-1-0 feuille
4 Power 14 8 4 2 0 33 19 14 0 68 (42) 3-1-1-0 feuille
5 La Cadence 14 8 5 1 0 38 28 10 0 66 (41) 2-2-1-0 feuille
6 Soucy 14 6 6 2 0 32 23 9 0 62 (42) 0-4-1-0 feuille
7 La Mafia 14 5 8 1 0 37 41 -4 0 56 (40) 2-3-0-0 feuille
8 Team Jew 14 5 9 0 0 30 53 -23 0 53 (38) 4-1-0-0 feuille
9 JPS Électronique 14 3 11 0 0 16 58 -42 0 50 (41) 2-3-0-0 feuille
10 Poireaux 14 3 8 3 0 29 44 -15 0 48 (36) 1-2-2-0 feuille
11 Maroons FC 14 1 13 0 0 15 70 -55 0 40 (37) 0-5-0-0 feuille



HORAIRE

# Jou. Date Heure Receveur Résultat Visiteur Terrain
1 Lun 2014-04-28 20:00 Tim Copains 6 - 1 La Mafia 2
2 Lun 2014-04-28 20:00 Power 4 - 3 La Cadence 1
3 Lun 2014-04-28 21:00 Drummond United 9 - 2 Poireaux 2
4 Lun 2014-04-28 21:00 JPS Électronique 5 - 1 Maroons FC 1
5 Jeu 2014-05-01 21:00 Soucy 3 - 2 Deloitte 2
6 Lun 2014-05-05 20:00 Maroons FC 1 - 8 Drummond United 2
7 Lun 2014-05-05 20:00 Poireaux 2 - 5 La Cadence 1
8 Lun 2014-05-05 22:00 La Mafia 2 - 4 Deloitte 1
9 Lun 2014-05-05 22:00 JPS Électronique 0 - 4 Tim Copains 2
10 Jeu 2014-05-08 21:00 Team Jew 0 - 5 Soucy 1
11 Lun 2014-05-12 21:00 Soucy 0 - 3 Drummond United 1
12 Lun 2014-05-12 21:00 Deloitte 7 - 0 JPS Électronique 2
13 Lun 2014-05-12 22:00 La Cadence 5 - 1 Maroons FC 2
14 Lun 2014-05-12 22:00 Tim Copains 4 - 2 Power 1
15 Jeu 2014-05-15 21:00 La Mafia 7 - 0 Team Jew 1
16 Jeu 2014-05-15 21:00 JPS Électronique 1 - 4 Poireaux 2
17 Lun 2014-05-19 20:00 JPS Électronique 0 - 4 Power 2
18 Lun 2014-05-19 20:00 Poireaux 2 - 3 Tim Copains 1
19 Lun 2014-05-19 21:00 La Cadence 1 - 0 Soucy 1
20 Lun 2014-05-19 21:00 Drummond United 4 - 2 Deloitte 2
21 Jeu 2014-05-22 21:00 Maroons FC 1 - 2 Team Jew 2
22 Lun 2014-05-26 20:00 Power 2 - 0 Maroons FC 2
23 Lun 2014-05-26 20:00 Deloitte 5 - 1 Poireaux 1
24 Lun 2014-05-26 22:00 Soucy 4 - 0 La Mafia 2
25 Lun 2014-05-26 22:00 Tim Copains 1 - 1 Drummond United 1
26 Jeu 2014-05-29 20:00 La Cadence 3 - 0 Team Jew 2
27 Lun 2014-06-02 21:00 Drummond United 3 - 2 La Mafia 1
28 Lun 2014-06-02 21:00 La Cadence 1 - 5 Tim Copains 2
29 Lun 2014-06-02 22:00 Poireaux 1 - 3 Power 2
30 Lun 2014-06-02 22:00 JPS Électronique 0 - 3 Soucy 1
31 Jeu 2014-06-05 21:00 Team Jew 0 - 7 Deloitte 2
32 Lun 2014-06-09 20:00 Deloitte 1 - 3 La Cadence 1
33 Lun 2014-06-09 20:00 Tim Copains 5 - 1 Maroons FC 2
34 Lun 2014-06-09 21:00 La Mafia 5 - 1 JPS Électronique 2
35 Lun 2014-06-09 21:00 Soucy 0 - 0 Poireaux 1
36 Jeu 2014-06-12 21:00 Power 2 - 1 Team Jew 2
37 Lun 2014-06-16 20:00 La Mafia 0 - 0 Power 1
38 Lun 2014-06-16 20:00 Deloitte 4 - 2 Tim Copains 2
39 Lun 2014-06-16 22:00 Poireaux 4 - 0 JPS Électronique 2
40 Lun 2014-06-16 22:00 Maroons FC 0 - 7 Soucy 1
41 Jeu 2014-06-19 21:00 Drummond United 7 - 3 Team Jew 2
42 Lun 2014-06-23 21:00 La Mafia 3 - 1 La Cadence 1
43 Lun 2014-06-23 21:00 Deloitte 3 - 1 Power 2
44 Lun 2014-06-23 22:00 Poireaux 0 - 3 Maroons FC 1 perdu par forfait toutes des joueurs de Power ou presque
45 Lun 2014-06-23 22:00 Drummond United 7 - 0 JPS Électronique 2
46 Jeu 2014-06-26 21:00 Soucy 5 - 0 Team Jew 2
47 Lun 2014-06-30 20:00 La Cadence 3 - 1 Power 1
48 Lun 2014-06-30 20:00 La Mafia 2 - 3 Tim Copains 2
49 Lun 2014-06-30 21:00 Poireaux 1 - 6 Drummond United 2
50 Lun 2014-06-30 21:00 Maroons FC 1 - 4 JPS Électronique 1
51 Jeu 2014-07-03 21:00 Deloitte 3 - 0 Team Jew 2
52 Lun 2014-07-07 20:00 Soucy 0 - 2 Power 1
53 Lun 2014-07-07 20:00 Drummond United 4 - 2 Maroons FC 2
54 Lun 2014-07-07 22:00 La Cadence 0 - 0 Poireaux 2
55 Lun 2014-07-07 22:00 Deloitte 5 - 3 La Mafia 1
56 Jeu 2014-07-10 20:00 La Mafia 0 - 6 Tim Copains 2
57 Jeu 2014-07-10 21:00 Team Jew 8 - 1 JPS Électronique 2 pdfm
58 Lun 2014-07-14 21:00 Maroons FC 2 - 6 La Cadence 1 pdfm
59 Lun 2014-07-14 21:00 JPS Électronique 0 - 7 Deloitte 2
60 Lun 2014-07-14 22:00 Drummond United 1 - 1 Soucy 2
61 Lun 2014-07-14 22:00 Power 1 - 2 Tim Copains 1
62 Jeu 2014-07-17 21:00 Poireaux 2 - 3 Team Jew 2
63 Lun 2014-07-21 20:00 La Mafia 6 - 1 Maroons FC 1
64 Lun 2014-07-21 20:00 Power 1 - 0 JPS Électronique 2
65 Lun 2014-07-21 21:00 Soucy 1 - 6 Deloitte 1
66 Lun 2014-07-21 21:00 La Cadence 4 - 2 Drummond United 2
67 Jeu 2014-07-24 21:00 Tim Copains 6 - 1 Team Jew 2
68 Jeu 2014-07-31 21:00 Team Jew 4 - 3 La Cadence 2
69 Lun 2014-08-04 21:00 Tim Copains 3 - 0 La Cadence 2
70 Lun 2014-08-04 21:00 Soucy 2 - 4 JPS Électronique 1
71 Lun 2014-08-04 22:00 La Mafia 2 - 6 Poireaux 2
72 Lun 2014-08-04 22:00 Power 2 - 2 Drummond United 1
73 Jeu 2014-08-07 21:00 Team Jew 8 - 1 Maroons FC 2
74 Dim 2014-08-10 20:00 Maroons FC 0 - 8 Power 2
75 Dim 2014-08-10 20:00 Poireaux 4 - 4 Deloitte 1
76 Dim 2014-08-10 21:00 La Mafia 4 - 1 Soucy 2
77 Dim 2014-08-10 22:00 Drummond United 5 - 2 Tim Copains 1
* Match : changement d'heure,de jour ou de terrain
** Défaite en prolongation ou en fusillade
???????? Match remis à une date ultérieure


     

Nombre de visiteurs: 4540484 depuis le 21 septembre 2007